STARLINK-11199, 60404

Orbit data source: Space-Track

STARLINK-11199, 60404 is a payload satellite owned by SpaceX/Seattle (US) in LEO that was launched on Sat, 10 Aug 2024 UTC via an FALCON 9 launch vehicle from the Air Force Eastern Test Range (AFETR). Payloads include a variety of satellites, spacecraft, and rockets equipped with specific instruments for various scientific and technological missions. These include communications satellites like Starlink; space stations such as the ISS; scientific satellites like the Hubble; Earth observation satellites from companies like Planet Labs, Umbra, and HawkEye 360; GPS; miniature CubeSats for education and research; and military/defense satellites.

Loading next visibility...
STARLINK-11199 details
Identifier
60404, 2024-141G
Orbit
LEO
Last TLE update10 hours ago
Origin
Flag of USSpaceX/Seattle (US)
ManufacturerSpaceX/Seattle
MissionOperational spacecraft
Bus & MotorSTARLINK V2M, Unknown motor
Mass730 kg wet, ~700 kg dry
Launch date (UTC)
2024-08-10 (5 months ago)
Launch vehicle
FALCON 9
Launch site
Air Force Eastern Test Range (AFETR)
Object type
Payload
Rocket body
Debris
Shape & HBRUnknown
Radar Cross SectionLarge (>1 m²)

Expand to show TLE details & history

TLE from 10 hours ago
0 STARLINK-11199
1 60404U 24141G   25014.90341014 -.00000574  00000-0  12715-6 0  9999
2 60404  53.1594 351.0288 0001386  76.2795 283.8377 15.69708982 25969
Epoch: 2025-01-14T21:40Z
Definitive object data (Epoch: 2025-01-14T21:40:54.636Z)
Latitude-0.00001°
Longitude-88.80229°
Altitude360.421 km
Speed7.694 km/s
True Right ascension23h 24m 06s
True Declination0° 00' 00"
Sunlit
Object was in daylight at TLE epoch
Visualization TLE readout
Latitude49.73554°
Longitude27.6285°
Altitude364.667 km
Speed7.697 km/s
Apparent Right ascension23h 39m 31s
Apparent Declination43° 31' 51"
Sunlit
Object is in full shadow
Visualization observer readout
Local Sidereal Time07:57:59
Azimuth323.027° NNW
Elevation7.24°
Doppler factor1
Orbital elements
Apogee altitude360.924 km
Perigee altitude359.057 km
Semi-major axis6,738.127 km
Eccentricity0.0001386
Inclination53.1594°
RAAN351.0288°
Arg. of periapsis76.2795°
True anomaly283.82228°
Mean anomaly283.8377°
Eccentric anomaly283.82999°
Mean motion3.92405 °/min
BSTAR1.2715e-7
Orbital period91.74 mins
Loading maneuver chart data...
Loading historical data...
Loading historical data...
Loading historical data...
Loading historical data...
Loading historical data...
Loading historical data...
Loading historical data...

STARLINK-11199 Visibility forecast

Observer location: undefined°, undefined

Span
Click to sort rows by Start time (UTC) header in descending order
Start Az.
Max El. time (UTC)
Max El. Az.
Max El.
End time (UTC)
End Az.
4 mins2025-01-15 07:19:28.354Z330.937° NNW2025-01-15 07:21:28.354Z22.75° NE28.157°2025-01-15 07:23:28.354Z90.33° ESE
4 mins2025-01-16 01:24:28.354Z267.121° W2025-01-16 01:26:28.354Z351.215° N30.179°2025-01-16 01:28:28.354Z34.315° NE
|